DELTA 1 DEB, 7054

Orbit data source: Space-Track

DELTA 1 DEB, 7054 is space debris in SSO originally from a launch on Tue, 06 Nov 1973 UTC launched from the Air Force Western Test Range (AFWTR). Debris objects in space refer to the collection of defunct objects orbiting the Earth. Examples of debris include non-operational satellites, rocket bodies, and fragments generated from explosions, collisions, or faulty payload assembly.

Loading next visibility...
Identifier
7054, 1973-086AW
Orbit
SSO
Country
Flag of USUS
Related business
Manufacturer
Unknown
Mission
Spacecraft
Bus & Motor
Unknown
Mass
Unknown
Launch date (UTC)
1973-11-06 (52 years ago)
Launch vehicle
Unknown
Launch site
Air Force Western Test Range (AFWTR)
Object type
Payload
Rocket body
Debris
Shape & HBR
Unknown shape, 0.3 m
Radar Cross Section
Medium (>0.1 m² and <1 m²)

Expand to show TLE details & history
Last TLE update: 11 hours ago

TLE from 11 hours ago
0 DELTA 1 DEB
1 07054U 73086AW  26033.55465756  .00000162  00000-0  52935-3 0  9993
2 07054 101.5340  65.0640 0313783 183.1308 332.3554 13.03810342482905
Epoch: 2026-02-02T13:18Z
TLE epoch observation values (Epoch: 2026-02-02T13:18:42.413Z)
Latitude
25.70706°
Longitude
-81.75232°
Altitude
1,039.782 km
Speed
7.435 km/s
True Right ascension
16h 42m 41s
True Declination
25° 34' 41"
Sunlit
Object was in daylight at epoch
Visualization orbit readout
Latitude
Unknown
Longitude
Unknown
Altitude
Unknown
Speed
Unknown
Apparent Right ascension
Unknown
Apparent Declination
Unknown
Sunlit
N/A
Visualization observer readout
Local Sidereal Time
02:10:38
Azimuth
Unknown
Elevation
Unknown
Doppler factor
Unknown
Orbital elements
Apogee altitude
1,483.848 km
Perigee altitude
1,005.467 km
Semi-major axis
7,622.794 km
Eccentricity
0.03138
Inclination
101.534°
RAAN
65.064°
Arg. of periapsis
183.1308°
True anomaly
330.62735°
Mean anomaly
332.3554°
Eccentric anomaly
331.49747°
Mean motion
3.26116 °/min
Orbital period
110.39 mins
BSTAR
0.00052935
Loading maneuver chart data...
Computing Atmospheric mass density...
Loading historical data...
Loading historical data...
Loading historical data...
Loading historical data...
Loading historical data...
Loading historical data...
Loading historical data...

Documentation

Showing up to 5 results
|